COSMOS 249 DEB *, 3679

Orbit data source: Space-Track

COSMOS 249 DEB *, 3679 is space debris in LEO originally from a launch on Sun, 20 Oct 1968 UTC launched from the Tyuratam Missile And Space Complex (TTMTR). Debris objects in space refer to the collection of defunct objects orbiting the Earth. Examples of debris include non-operational satellites, rocket bodies, and fragments generated from explosions, collisions, or faulty payload assembly.

Loading next visibility...
Identifier
3679, 1968-091AE
Orbit
LEO
Country
Flag of CISCIS
Related business
Manufacturer
Unknown
Mission
Spacecraft
Bus & Motor
Unknown
Mass
Unknown
Launch date (UTC)
1968-10-20 (57 years ago)
Launch vehicle
Unknown
Launch site
Tyuratam Missile And Space Complex (TTMTR)
Object type
Payload
Rocket body
Debris
Shape & HBR
Unknown shape, 0.1 m
Radar Cross Section
Small (<0.1 m²)

Expand to show TLE details & history
Last TLE update: 17 hours ago

TLE from 17 hours ago
0 COSMOS 249 DEB *
1 03679U 68091AE  25302.29891807  .00003654  00000-0  89330-3 0  9999
2 03679  62.7491 281.9198 0499585 208.8518 148.4053 13.98414746752114
Epoch: 2025-10-29T07:10Z
TLE epoch observation values (Epoch: 2025-10-29T07:10:26.521Z)
Latitude
0.00004°
Longitude
136.43526°
Altitude
1,215.426 km
Speed
7.089 km/s
True Right ascension
18h 47m 40s
True Declination
0° 00' 00"
Sunlit
Object was in daylight at epoch
Visualization orbit readout
Latitude
Unknown
Longitude
Unknown
Altitude
Unknown
Speed
Unknown
Apparent Right ascension
Unknown
Apparent Declination
Unknown
Sunlit
N/A
Visualization observer readout
Local Sidereal Time
19:49:16
Azimuth
Unknown
Elevation
Unknown
Doppler factor
Unknown
Orbital elements
Apogee altitude
1,261.681 km
Perigee altitude
534.654 km
Semi-major axis
7,276.305 km
Eccentricity
0.04996
Inclination
62.7491°
RAAN
281.9198°
Arg. of periapsis
208.8518°
True anomaly
151.25165°
Mean anomaly
148.4053°
Eccentric anomaly
149.84328°
Mean motion
3.49685 °/min
Orbital period
102.95 mins
BSTAR
0.0008933
Loading maneuver chart data...
Computing Atmospheric mass density...
Loading historical data...
Loading historical data...
Loading historical data...
Loading historical data...
Loading historical data...
Loading historical data...
Loading historical data...

Documentation

Showing up to 5 results
|